Location: Street
(51.1247°N, 2.7429°W)
Time: 06:31:19
(UTC+00:00)

SR - Pass Details

Date: 29 November 2020
Orbit: 575 x 880 km, 66.7° (Epoch: 25 January)

Event Time Altitude Azimuth Distance (km) Brightness Sun altitude
Rises 17:51:19 0° 183° (S) 2,803 ? -15.4°
Reaches altitude 10° 17:53:43 10° 172° (S) 1,933 ? -15.8°
Maximum altitude 17:57:24 28° 113° (ESE) 1,183 ? -16.4°
Enters shadow 17:57:53 27° 102° (ESE) 1,206 ? -16.4°
Drops below altitude 10° 18:01:19 10° 55° (NE) 2,065 - -17.0°
Sets 18:03:57 0° 44° (NE) 3,035 - -17.4°
